sat.trackr.live / text

‹ back to catalog

STARLINK-37533

NORAD 69130 · 2026-110G

PAYLOAD ACTIVE UNKNOWN

§ Identity

Operator
Country
US
Launch date
2026-05-20
Launch site
AFWTR
Launch vehicle
Mass (kg)
RCS (m²)

Purposes: comms

External: N2YO · Heavens-Above · Gunter

§ Orbital elements

Epoch: 2026-09-17T22:52:23.657376Z

Period
93.91 min
Inclination
97.2872°
Eccentricity
0.0001015
Mean motion
15.33448902 rev/d
Perigee alt
464.8 km
Apogee alt
466.2 km
Semi-major
6,843.7 km
B*
5.0807e-4
RAAN
96.0157°
Arg perigee
92.7674°
Mean anomaly
267.3685°
Rev number
1,982

§ Raw data

STARLINK-375331 69130U 26110G   26260.95305159  .00016365  00000+0  50807-3 0  99952 69130  97.2872  96.0157 0001015  92.7674 267.3685 15.33448902 19822

JSON: /api/v1/satellites/69130 · /tle

For live sub-satellite position, see the globe view (requires WebGL).

§ Visibility from observer

Set your observer location to see the next 7 days of passes ≥ 10°. The values pass through the URL so the page stays shareable.

No JS? Fill the form by hand. The geolocation button needs JavaScript.